Date String (YYYY-MM-DD hh:mm:ss) UTC,Instrument flags,absolute air pressure of the measurement (hPa),sample flow rate (lpm),inlet stack bypass flow (lpm),air temperature of the measurement (°C),ambient temperature measured by the external sensor (°C),aerosol sample conditioner tube jacket temperature (°C),OPC LED temperature (°C),internal box temperature (°C),relative humidity of the measurement (%),span deviation,mass concentration of particles derived from Lorenz-Mie calculation of OPC scattering (μg/m³),mass concentration of particles derived from Lorenz-Mie calculation of OPC scattering (μg/m³),mass concentration of particles derived from Lorenz-Mie calculation of OPC scattering (μg/m³)
DateTimeUTC,F1_M11,P_M11,Q1_M11,Q2_M11,T1_M11,T2_M11,T3_M11,T4_M11,T5_M11,U1_M11,ZSPAN_M11,X2_M11,X0_M11,X1_M11
2024-03-02 08:00:00,SystemResetWarning,0820.5,4.98,000.00,022.9,022.1,000.0,031.2,024.7,08.0,0000.0,0001.70,0006.36,0000.97
2024-03-02 08:01:00,SystemResetWarning,0820.5,5.00,000.00,022.9,022.1,000.0,031.2,024.6,08.0,0000.0,0001.65,0005.70,0000.96
2024-03-02 08:02:00,SystemResetWarning,0820.5,5.00,000.00,022.9,022.1,000.0,031.2,024.7,07.9,0000.0,0001.64,0005.81,0000.95
2024-03-02 08:03:00,SystemResetWarning,0820.9,5.00,000.00,022.9,022.0,000.0,031.2,024.6,07.9,0000.0,0001.68,0006.30,0000.97
2024-03-02 08:04:00,SystemResetWarning,0820.9,5.00,000.00,022.9,022.0,000.0,031.2,024.7,07.8,0000.0,0001.68,0006.28,0000.97
2024-03-02 08:05:00,SystemResetWarning,0820.9,5.01,000.00,022.9,022.0,000.0,031.2,024.7,07.8,0000.0,0001.70,0006.23,0000.96
2024-03-02 08:06:00,SystemResetWarning,0820.3,5.00,000.00,022.9,022.0,000.0,031.2,024.7,07.9,0000.0,0001.66,0006.04,0000.96
2024-03-02 08:07:00,SystemResetWarning,0820.4,5.00,000.00,022.9,022.0,000.0,031.2,024.6,07.9,0000.0,0001.61,0005.89,0000.95
2024-03-02 08:08:00,SystemResetWarning,0820.3,5.00,000.00,022.9,022.0,000.0,031.2,024.7,07.9,0000.0,0001.57,0005.66,0000.95
2024-03-02 08:09:00,SystemResetWarning,0820.3,5.00,000.00,022.9,022.0,000.0,031.3,024.7,07.9,0000.0,0001.52,0005.50,0000.94
2024-03-02 08:10:00,SystemResetWarning,0820.3,5.00,000.00,022.8,022.0,000.0,031.3,024.6,08.2,0000.0,0001.52,0004.39,0000.94
2024-03-02 08:11:00,SystemResetWarning,0820.2,5.00,000.00,022.8,022.0,000.0,031.3,024.6,08.2,0000.0,0001.52,0003.28,0000.96
2024-03-02 08:12:00,SystemResetWarning,0820.2,5.00,000.00,022.8,022.0,000.0,031.3,024.6,08.1,0000.0,0001.52,0003.25,0000.95
2024-03-02 08:13:00,SystemResetWarning,0820.2,5.00,000.00,022.8,022.0,000.0,031.3,024.6,08.0,0000.0,0001.48,0002.98,0000.96
2024-03-02 08:14:00,SystemResetWarning,0820.1,5.00,000.00,022.8,022.0,000.0,031.3,024.6,08.0,0000.0,0001.45,0003.19,0000.95
2024-03-02 08:15:00,SystemResetWarning,0820.2,5.00,000.00,022.8,022.0,000.0,031.3,024.6,08.0,0000.0,0001.46,0003.79,0000.95
2024-03-02 08:16:00,SystemResetWarning,0820.2,5.00,000.00,022.8,022.0,000.0,031.2,024.6,08.0,0000.0,0001.44,0003.74,0000.95
2024-03-02 08:17:00,SystemResetWarning,0820.2,5.00,000.00,022.8,021.9,000.0,031.2,024.6,08.0,0000.0,0001.44,0003.75,0000.96
2024-03-02 08:18:00,SystemResetWarning,0820.2,5.00,000.00,022.8,021.9,000.0,031.2,024.6,08.0,0000.0,0001.46,0003.71,0000.96
2024-03-02 08:19:00,SystemResetWarning,0820.2,4.99,000.00,022.8,021.9,000.0,031.2,024.6,08.0,0000.0,0001.49,0003.86,0000.96
2024-03-02 08:20:00,SystemResetWarning,0820.2,4.99,000.00,022.8,021.9,000.0,031.2,024.6,08.0,0000.0,0001.49,0003.89,0000.97
2024-03-02 08:21:00,SystemResetWarning,0820.2,5.00,000.00,022.8,021.9,000.0,031.2,024.6,08.0,0000.0,0001.47,0003.85,0000.97
2024-03-02 08:22:00,SystemResetWarning,0820.1,5.00,000.00,022.8,021.9,000.0,031.2,024.6,08.0,0000.0,0001.46,0003.92,0000.96
2024-03-02 08:23:00,SystemResetWarning,0820.3,5.00,000.00,022.8,021.9,000.0,031.2,024.6,08.0,0000.0,0001.44,0003.92,0000.97
2024-03-02 08:24:00,SystemResetWarning,0820.2,5.00,000.00,022.8,021.9,000.0,031.2,024.6,08.0,0000.0,0001.46,0003.97,0000.97
2024-03-02 08:25:00,SystemResetWarning,0820.2,5.00,000.00,022.8,021.9,000.0,031.2,024.6,08.0,0000.0,0001.48,0004.24,0000.97
2024-03-02 08:26:00,SystemResetWarning,0820.2,5.00,000.00,022.8,021.9,000.0,031.2,024.6,08.0,0000.0,0001.45,0003.99,0000.97
2024-03-02 08:27:00,SystemResetWarning,0820.2,5.00,000.00,022.8,021.9,000.0,031.2,024.6,08.0,0000.0,0001.42,0003.97,0000.97
2024-03-02 08:28:00,SystemResetWarning,0820.1,5.00,000.00,022.8,021.9,000.0,031.2,024.6,08.0,0000.0,0001.47,0004.13,0000.97
2024-03-02 08:29:00,SystemResetWarning,0820.1,5.00,000.00,022.8,021.9,000.0,031.2,024.5,08.0,0000.0,0001.51,0004.24,0000.97
2024-03-02 08:30:00,SystemResetWarning,0820.1,5.00,000.00,022.8,021.9,000.0,031.2,024.6,07.9,0000.0,0001.48,0004.08,0000.97
2024-03-02 08:31:00,SystemResetWarning,0820.1,5.00,000.00,022.8,021.9,000.0,031.2,024.6,07.9,0000.0,0001.51,0004.02,0000.96
2024-03-02 08:32:00,SystemResetWarning,0820.1,5.00,000.00,022.8,021.9,000.0,031.2,024.6,07.9,0000.0,0001.55,0004.15,0000.96
2024-03-02 08:33:00,SystemResetWarning,0820.1,4.99,000.00,022.8,021.9,000.0,031.2,024.6,07.9,0000.0,0001.55,0004.15,0000.97
2024-03-02 08:34:00,SystemResetWarning,0820.4,5.00,000.00,022.8,021.9,000.0,031.2,024.6,08.0,0000.0,0001.57,0004.21,0000.96
2024-03-02 08:35:00,SystemResetWarning,0820.0,5.00,000.00,022.8,021.8,000.0,031.2,024.5,08.0,0000.0,0001.59,0004.38,0000.96
2024-03-02 08:36:00,SystemResetWarning,0820.1,5.00,000.00,022.7,021.8,000.0,031.2,024.5,08.0,0000.0,0001.56,0003.83,0000.95
2024-03-02 08:37:00,SystemResetWarning,0820.1,5.00,000.00,022.7,021.8,000.0,031.2,024.5,08.1,0000.0,0001.61,0003.97,0000.94
2024-03-02 08:38:00,SystemResetWarning,0820.1,5.00,000.00,022.7,021.8,000.0,031.2,024.5,08.1,0000.0,0001.61,0005.08,0000.94
2024-03-02 08:39:00,SystemResetWarning,0820.1,5.00,000.00,022.7,021.8,000.0,031.2,024.5,08.2,0000.0,0001.59,0005.11,0000.93
2024-03-02 08:40:00,SystemResetWarning,0820.3,5.00,000.00,022.7,021.8,000.0,031.2,024.5,08.4,0000.0,0001.55,0004.97,0000.92
2024-03-02 08:41:00,SystemResetWarning,0820.3,5.00,000.00,022.7,021.8,000.0,031.2,024.5,08.3,0000.0,0001.58,0005.22,0000.92
2024-03-02 08:42:00,SystemResetWarning,0820.4,5.00,000.00,022.7,021.8,000.0,031.2,024.5,08.3,0000.0,0001.59,0005.27,0000.92
2024-03-02 08:43:00,SystemResetWarning,0820.1,5.00,000.00,022.7,021.8,000.0,031.2,024.5,08.3,0000.0,0001.56,0005.18,0000.93
2024-03-02 08:44:00,SystemResetWarning,0820.1,5.00,000.00,022.7,021.8,000.0,031.2,024.5,08.2,0000.0,0001.57,0005.17,0000.93
2024-03-02 08:45:00,SystemResetWarning,0820.1,5.00,000.00,022.7,021.8,000.0,031.1,024.5,08.2,0000.0,0001.62,0005.47,0000.94
2024-03-02 08:46:00,SystemResetWarning,0820.0,5.00,000.00,022.7,021.8,000.0,031.1,024.5,08.2,0000.0,0001.64,0005.46,0000.94
2024-03-02 08:47:00,SystemResetWarning,0820.0,5.00,000.00,022.7,021.8,000.0,031.1,024.5,08.2,0000.0,0001.62,0005.41,0000.95
2024-03-02 08:48:00,SystemResetWarning,0820.0,5.00,000.00,022.7,021.8,000.0,031.1,024.5,08.2,0000.0,0001.63,0004.87,0000.95
2024-03-02 08:49:00,SystemResetWarning,0820.0,5.00,000.00,022.7,021.8,000.0,031.1,024.5,08.2,0000.0,0001.64,0003.90,0000.95
2024-03-02 08:50:00,SystemResetWarning,0820.0,5.00,000.00,022.7,021.8,000.0,031.1,024.5,08.2,0000.0,0001.61,0003.74,0000.94
2024-03-02 08:51:00,SystemResetWarning,0820.0,5.00,000.00,022.7,021.9,000.0,031.1,024.5,08.2,0000.0,0001.59,0003.77,0000.94
2024-03-02 08:52:00,SystemResetWarning,0820.1,5.00,000.00,022.7,021.9,000.0,031.1,024.5,08.2,0000.0,0001.56,0003.62,0000.95
2024-03-02 08:53:00,SystemResetWarning,0820.0,5.00,000.00,022.7,021.9,000.0,031.1,024.5,08.3,0000.0,0001.53,0003.50,0000.95
2024-03-02 08:54:00,SystemResetWarning,0820.1,5.00,000.00,022.7,021.9,000.0,031.1,024.5,08.3,0000.0,0001.51,0003.46,0000.94
2024-03-02 08:55:00,SystemResetWarning,0820.3,5.00,000.00,022.7,021.9,000.0,031.1,024.5,08.3,0000.0,0001.54,0003.59,0000.94
2024-03-02 08:56:00,SystemResetWarning,0820.1,5.00,000.00,022.7,021.9,000.0,031.1,024.5,08.5,0000.0,0001.49,0003.30,0000.93
2024-03-02 08:57:00,SystemResetWarning,0820.0,4.99,000.00,022.7,021.8,000.0,031.1,024.5,08.4,0000.0,0001.49,0003.20,0000.92
2024-03-02 08:58:00,SystemResetWarning,0820.0,4.99,000.00,022.7,021.8,000.0,031.1,024.5,08.4,0000.0,0001.51,0003.30,0000.92
2024-03-02 08:59:00,SystemResetWarning,0820.0,5.01,000.00,022.7,021.9,000.0,031.0,024.5,08.3,0000.0,0001.50,0003.59,0000.92
